Location: Slanting_Bridge
(35.6330°N, 80.9830°W)
Time: 23:41:31
(UTC-04:00)

Amateur Radio Satellites - All Passes

Search period start: 25 October 2014 23:11
Search period end: 26 October 2014 23:11
Location: Slanting_Bridge, 35.6330°N, 80.9830°W

Satellite Date Start Highest point End Downlink Frequencies (MHz)
Time Altitude Azimuth
RS-15 25 Oct 23:11:21 23:22:23 77° 301° (WNW) 23:33:21 29.354 - 29.394 USB, Beacon 29.352 USB
ZACube-1 25 Oct 23:36:02 23:40:14 35° 262° (W) 23:44:25 437.345 MHz
HO-68 25 Oct 23:36:43 23:38:43 11° 270° (W) 23:40:44 435.675 MHz FM
UKube-1 25 Oct 23:42:43 23:43:45 11° 268° (W) 23:44:47 145.840 MHz, 145.915 MHz
MaSat-1 26 Oct 00:11:54 00:16:05 68° 294° (WNW) 00:19:53 437.345 MHz
FUNcube-1 26 Oct 00:23:41 00:25:03 11° 268° (W) 00:26:25 145.950 - 145.970 MHz USB
UOSAT-12 26 Oct 00:25:14 00:29:56 76° 242° (WSW) 00:34:32 437.025 FM, 437.400 FM
RS-15 26 Oct 01:28:50 01:36:51 23° 327° (NNW) 01:44:57 29.354 - 29.394 USB, Beacon 29.352 USB
Oscar 16 26 Oct 01:35:25 01:36:14 10° 91° (E) 01:37:03 437.025 USB, Beacon 2401.1428
Oscar 10/S400 26 Oct 01:39:20 02:45:58 24° 244° (WSW) 05:34:20 145.825 - 145.975 CW/USB, Beacon 145.810 USB
JAS-1B 26 Oct 02:13:28 02:19:45 33° 99° (E) 02:27:00 435.800 - 435.900 CW/SSB
Oscar 19 26 Oct 02:25:14 02:29:57 37° 98° (E) 02:34:39 437.125 CW, 437.150 USB
AO-27 26 Oct 02:46:30 02:50:39 24° 95° (E) 02:54:45 436.795 MHz FM
AO-Echo 26 Oct 02:56:25 03:01:26 40° 98° (E) 03:06:23 ?
Oscar 16 26 Oct 03:10:57 03:16:03 74° 285° (WNW) 03:21:09 437.025 USB, Beacon 2401.1428
Sapphire 26 Oct 03:11:39 03:15:46 23° 106° (ESE) 03:19:54 437.095 MHz 1200 baud AX-25 AFSK
Uribyol 2 26 Oct 03:32:43 03:37:56 73° 102° (ESE) 03:43:06 436.500 FM
PCSat 26 Oct 03:33:00 03:37:59 40° 110° (ESE) 03:43:01 145.825 MHz
ITAMSAT 1 26 Oct 03:39:03 03:44:18 79° 103° (ESE) 03:49:30 435.822 SSB
RS-15 26 Oct 03:51:37 03:55:32 12° 4° (N) 03:59:30 29.354 - 29.394 USB, Beacon 29.352 USB
JAS-1B 26 Oct 04:03:52 04:10:17 44° 289° (WNW) 04:17:50 435.800 - 435.900 CW/SSB
Oscar 19 26 Oct 04:05:07 04:09:02 23° 293° (WNW) 04:12:57 437.125 CW, 437.150 USB
Gurwin Techsat 1B 26 Oct 04:06:14 04:11:34 75° 102° (ESE) 04:16:52 435.225 FM
TMSAT-1 26 Oct 04:16:39 04:21:57 69° 102° (ESE) 04:27:13 436.925 FM
AO-7 26 Oct 04:22:17 04:28:05 20° 94° (E) 04:33:51 29.400 - 29.500 MHz
AO-27 26 Oct 04:25:26 04:30:11 36° 290° (WNW) 04:34:54 436.795 MHz FM
AO-Echo 26 Oct 04:35:49 04:39:52 23° 293° (WNW) 04:43:55 ?
Uosat F 26 Oct 04:43:58 04:46:55 15° 93° (E) 04:49:50 435.120 FM
Sapphire 26 Oct 04:53:46 04:58:52 42° 302° (WNW) 05:04:01 437.095 MHz 1200 baud AX-25 AFSK
Uribyol 2 26 Oct 05:14:38 05:16:43 12° 298° (WNW) 05:18:48 436.500 FM
PCSat 26 Oct 05:17:02 05:21:29 26° 306° (NW) 05:25:59 145.825 MHz
ITAMSAT 1 26 Oct 05:21:22 05:23:04 12° 298° (WNW) 05:24:45 435.822 SSB
OPAL 26 Oct 05:30:58 05:36:02 60° 72° (ENE) 05:41:03 ?
Gurwin Techsat 1B 26 Oct 05:48:42 05:50:50 12° 298° (WNW) 05:52:57 435.225 FM
TMSAT-1 26 Oct 05:58:44 06:01:13 14° 297° (WNW) 06:03:43 436.925 FM
JAS-2 26 Oct 06:02:30 06:09:32 35° 95° (E) 06:16:23 435.800 - 435.900 CW/SSB, 435.910 FM
RS-15 26 Oct 06:04:30 06:13:39 28° 39° (NE) 06:23:01 29.354 - 29.394 USB, Beacon 29.352 USB
AO-7 26 Oct 06:13:10 06:21:28 74° 290° (WNW) 06:29:45 29.400 - 29.500 MHz
Uosat F 26 Oct 06:21:03 06:25:57 51° 287° (WNW) 06:30:48 435.120 FM
Hamsat 26 Oct 06:38:18 06:42:04 32° 97° (E) 06:45:51 145.90 MHz
OPAL 26 Oct 07:12:37 07:15:12 14° 265° (W) 07:17:47 ?
STRAND 1 26 Oct 07:17:37 07:22:42 67° 74° (ENE) 07:27:48 ?
PANSAT 26 Oct 07:19:44 07:22:31 19° 167° (SSE) 07:25:18 not established
Saudisat 1A 26 Oct 07:22:51 07:27:03 48° 115° (ESE) 07:31:18 436.775 MHz
JAS-2 26 Oct 07:47:09 07:54:31 47° 291° (WNW) 08:01:48 435.800 - 435.900 CW/SSB, 435.910 FM
AO-7 26 Oct 08:08:47 08:12:50 15° 308° (NW) 08:16:54 29.400 - 29.500 MHz
Hamsat 26 Oct 08:14:55 08:17:46 18° 291° (WNW) 08:20:36 145.90 MHz
RS-15 26 Oct 08:16:12 08:27:29 87° 243° (WSW) 08:39:17 29.354 - 29.394 USB, Beacon 29.352 USB
SO-67 26 Oct 08:27:10 08:30:38 85° 102° (ESE) 08:34:04 435.3500 MHz FM
PANSAT 26 Oct 08:58:53 09:02:11 27° 179° (S) 09:05:29 not established
STRAND 1 26 Oct 09:00:25 09:02:17 12° 269° (W) 09:04:10 ?
Saudisat 1A 26 Oct 09:04:02 09:06:52 17° 312° (NW) 09:09:44 436.775 MHz
HO-68 26 Oct 09:15:15 09:20:35 22° 94° (E) 09:25:53 435.675 MHz FM
UKube-1 26 Oct 09:56:24 09:57:56 12° 92° (E) 09:59:27 145.840 MHz, 145.915 MHz
MaSat-1 26 Oct 10:00:43 10:03:11 61° 249° (WSW) 10:05:31 437.345 MHz
RS-15 26 Oct 10:31:25 10:38:19 19° 260° (W) 10:45:26 29.354 - 29.394 USB, Beacon 29.352 USB
Oscar 11 26 Oct 10:34:27 10:38:19 32° 97° (E) 10:42:10 145.825 FM, Beacon 2401.500 USB
FUNcube-1 26 Oct 10:38:01 10:39:56 13° 92° (E) 10:41:50 145.950 - 145.970 MHz USB
PANSAT 26 Oct 10:38:57 10:41:52 21° 192° (SSW) 10:44:47 not established
HO-68 26 Oct 11:01:35 11:08:39 61° 290° (WNW) 11:15:40 435.675 MHz FM
KITSAT 1 26 Oct 11:16:57 11:23:25 27° 105° (ESE) 11:29:53 435.175 FM
ZACube-1 26 Oct 11:28:02 11:32:11 55° 100° (E) 11:36:15 437.345 MHz
UKube-1 26 Oct 11:30:08 11:34:22 51° 286° (WNW) 11:38:35 145.840 MHz, 145.915 MHz
ISS 26 Oct 11:31:57 11:34:23 19° 129° (SE) 11:36:49 145.800 FM
SO-50 26 Oct 11:42:35 11:43:44 11° 106° (ESE) 11:44:53 436.795 FM
Oscar 10/S400 26 Oct 11:50:28 12:14:15 28° 153° (SSE) 12:29:25 145.825 - 145.975 CW/USB, Beacon 145.810 USB
Sapphire 26 Oct 12:03:30 12:05:29 12° 45° (NE) 12:07:27 437.095 MHz 1200 baud AX-25 AFSK
Oscar 11 26 Oct 12:11:15 12:14:15 19° 292° (WNW) 12:17:14 145.825 FM, Beacon 2401.500 USB
FUNcube-1 26 Oct 12:12:32 12:16:31 41° 287° (WNW) 12:20:25 145.950 - 145.970 MHz USB
PCSat 26 Oct 12:24:27 12:28:17 19° 51° (NE) 12:32:05 145.825 MHz
Oscar 16 26 Oct 12:49:01 12:51:18 13° 63° (ENE) 12:53:35 437.025 USB, Beacon 2401.1428
JAS-1B 26 Oct 12:59:39 13:03:01 16° 63° (ENE) 13:06:20 435.800 - 435.900 CW/SSB
ZACube-1 26 Oct 13:07:04 13:08:03 11° 295° (WNW) 13:09:01 437.345 MHz
ISS 26 Oct 13:07:48 13:10:53 34° 324° (NW) 13:13:58 145.800 FM
KITSAT 1 26 Oct 13:10:19 13:18:15 59° 302° (WNW) 13:26:13 435.175 FM
SO-50 26 Oct 13:19:13 13:23:38 63° 302° (WNW) 13:28:12 436.795 FM
Oscar 19 26 Oct 13:39:14 13:44:01 40° 71° (ENE) 13:48:48 437.125 CW, 437.150 USB
Sapphire 26 Oct 13:44:17 13:49:44 82° 64° (ENE) 13:55:09 437.095 MHz 1200 baud AX-25 AFSK
AO-27 26 Oct 14:01:51 14:06:11 27° 68° (ENE) 14:10:33 436.795 MHz FM
AO-Echo 26 Oct 14:06:38 14:11:05 36° 71° (ENE) 14:15:41 ?
PCSat 26 Oct 14:06:44 14:12:03 57° 248° (WSW) 14:17:20 145.825 MHz
Oscar 16 26 Oct 14:24:53 14:30:01 69° 258° (WSW) 14:35:10 437.025 USB, Beacon 2401.1428
UOSAT-12 26 Oct 14:33:16 14:37:49 66° 117° (ESE) 14:42:29 437.025 FM, 437.400 FM
JAS-1B 26 Oct 14:47:18 14:53:15 58° 258° (WSW) 14:58:51 435.800 - 435.900 CW/SSB
Uribyol 2 26 Oct 14:47:33 14:52:45 81° 75° (ENE) 14:58:00 436.500 FM
ITAMSAT 1 26 Oct 14:54:03 14:59:15 88° 75° (ENE) 15:04:31 435.822 SSB
KITSAT 1 26 Oct 15:11:39 15:15:31 14° 325° (NW) 15:19:24 435.175 FM
AO-7 26 Oct 15:18:41 15:24:49 24° 57° (ENE) 15:30:57 29.400 - 29.500 MHz
Oscar 19 26 Oct 15:19:41 15:23:27 20° 266° (W) 15:27:14 437.125 CW, 437.150 USB
Gurwin Techsat 1B 26 Oct 15:24:21 15:29:39 87° 76° (ENE) 15:34:59 435.225 FM
Sapphire 26 Oct 15:31:26 15:32:22 10° 258° (WSW) 15:33:18 437.095 MHz 1200 baud AX-25 AFSK
TMSAT-1 26 Oct 15:34:24 15:39:41 80° 76° (ENE) 15:45:01 436.925 FM
AO-27 26 Oct 15:40:57 15:45:33 31° 263° (W) 15:50:11 436.795 MHz FM
AO-Echo 26 Oct 15:46:17 15:49:56 21° 266° (W) 15:53:41 ?
Saudisat 1A 26 Oct 15:52:53 15:56:03 19° 49° (NE) 15:59:12 436.775 MHz
Uosat F 26 Oct 15:54:43 15:57:51 17° 65° (ENE) 16:01:00 435.120 FM
UOSAT-12 26 Oct 16:15:45 16:18:25 15° 314° (NW) 16:21:08 437.025 FM, 437.400 FM
AO-7 26 Oct 17:08:34 17:16:48 72° 255° (WSW) 17:25:05 29.400 - 29.500 MHz
Hamsat 26 Oct 17:29:50 17:32:28 17° 68° (ENE) 17:35:07 145.90 MHz
Uosat F 26 Oct 17:31:20 17:36:11 50° 260° (W) 17:41:05 435.120 FM
Saudisat 1A 26 Oct 17:31:37 17:35:47 42° 245° (WSW) 17:39:56 436.775 MHz
OPAL 26 Oct 17:44:57 17:48:25 19° 96° (E) 17:51:52 ?
JAS-2 26 Oct 17:55:34 18:01:22 63° 72° (ENE) 18:07:59 435.800 - 435.900 CW/SSB, 435.910 FM
ISS 26 Oct 18:03:21 18:04:39 12° 24° (NNE) 18:05:58 145.800 FM
SO-67 26 Oct 18:57:54 19:00:07 17° 70° (ENE) 19:02:21 435.3500 MHz FM
Hamsat 26 Oct 19:04:17 19:08:07 34° 262° (W) 19:11:57 145.90 MHz
AO-7 26 Oct 19:10:11 19:10:45 10° 271° (W) 19:11:20 29.400 - 29.500 MHz
KITSAT 1 26 Oct 19:15:54 19:16:32 10° 29° (NNE) 19:17:10 435.175 FM
OPAL 26 Oct 19:22:48 19:27:25 41° 291° (WNW) 19:32:01 ?
STRAND 1 26 Oct 19:31:45 19:36:11 28° 97° (E) 19:40:34 ?
ISS 26 Oct 19:38:31 19:41:51 72° 41° (NE) 19:45:10 145.800 FM
JAS-2 26 Oct 19:43:24 19:47:06 17° 272° (W) 19:51:04 435.800 - 435.900 CW/SSB, 435.910 FM
HO-68 26 Oct 19:43:56 19:46:47 13° 55° (NE) 19:49:38 435.675 MHz FM
RS-15 26 Oct 20:29:53 20:35:46 16° 99° (E) 20:41:34 29.354 - 29.394 USB, Beacon 29.352 USB
SO-67 26 Oct 20:30:14 20:32:54 21° 264° (W) 20:35:36 435.3500 MHz FM
KITSAT 1 26 Oct 21:06:51 21:14:27 42° 54° (NE) 21:21:59 435.175 FM
STRAND 1 26 Oct 21:10:51 21:15:16 29° 291° (WNW) 21:19:39 ?
HO-68 26 Oct 21:26:09 21:33:17 76° 72° (ENE) 21:40:28 435.675 MHz FM
Oscar 11 26 Oct 21:27:27 21:30:26 19° 68° (ENE) 21:33:25 145.825 FM, Beacon 2401.500 USB
SO-50 26 Oct 21:53:25 21:58:09 51° 57° (ENE) 22:02:55 436.795 FM
ZACube-1 26 Oct 22:21:26 22:25:30 32° 72° (ENE) 22:29:32 437.345 MHz
UKube-1 26 Oct 22:22:14 22:26:35 88° 257° (WSW) 22:30:58 145.840 MHz, 145.915 MHz
RS-15 26 Oct 22:35:19 22:46:23 84° 117° (ESE) 22:57:20 29.354 - 29.394 USB, Beacon 29.352 USB
Oscar 11 26 Oct 23:02:28 23:06:21 33° 262° (W) 23:10:15 145.825 FM, Beacon 2401.500 USB
